Overview Statistics Trail Chart Weather Telemetry Raw packets
 

This is the latest recevied weather packets stored in our database for station/object IZ2XCK-13. If no packets are shown the sender has not sent any weather packets the latest 10 day(s).

<< 23 24 25 26 27 28 29 >>
Time Temp. Humidity Pressure Rain* Wind** Luminosity Snow
1787805237 20° C 77% 1021.4 hPa - - - -
1787804036 20° C 78% 1021.1 hPa - - - -
1787801636 20.56° C 75% 1020.7 hPa - - - -
1787800435 20.56° C 76% 1020.6 hPa - - - -
1787799235 20.56° C 77% 1020.8 hPa - - - -
1787798035 20.56° C 77% 1020.6 hPa - - - -
1787796834 21.11° C 75% 1020.7 hPa - - - -
1787795634 20.56° C 77% 1020.8 hPa - - - -
1787794434 20.56° C 79% 1021 hPa - - - -
1787793233 21.11° C 76% 1020.8 hPa - - - -
1787792033 21.67° C 73% 1020.6 hPa - - - -
1787790833 21.67° C 74% 1020.6 hPa - - - -
1787789632 21.67° C 77% 1020.8 hPa - - - -
1787788432 21.67° C 77% 1021.3 hPa - - - -
1787787232 21.67° C 78% 1021.5 hPa - - - -
1787786031 21.67° C 78% 1021.7 hPa - - - -
1787784831 21.67° C 80% 1021.7 hPa - - - -
1787783631 22.22° C 79% 1021.5 hPa - - - -
1787782430 21.67° C 80% 1021.4 hPa - - - -
1787781230 22.78° C 77% 1021.3 hPa - - - -
1787780030 22.22° C 79% 1021.3 hPa - - - -
1787778830 22.78° C 77% 1021.3 hPa - - - -
1787776429 23.33° C 74% 1020.9 hPa - - - -
1787775229 23.33° C 74% 1020.9 hPa - - - -
1787774028 22.78° C 76% 1020.8 hPa - - - -

* Rain since midnight (hover to see other rain measurements)
** Current wind speed in m/s (hover to see current wind gust speed)